IRIDIUM 33 DEB, 37562

Orbit data source: Space-Track

IRIDIUM 33 DEB, 37562 is space debris in LEO originally from a launch on Sun, 14 Sep 1997 UTC launched from the Tyuratam Missile And Space Complex (TTMTR). The debris from Iridium 33, an American commercial communications satellite, has been tracked extensively since its accidental collision with the defunct Russian satellite Cosmos 2251 in 2009. This event, occurring at high speed in low Earth orbit (LEO), generated thousands of pieces of space debris, significantly increasing the risk of further collisions. The Iridium 33 debris cloud has impacted space traffic management and orbital debris mitigation strategies, making it a subject of ongoing study in space situational awareness.

Loading next visibility...
Identifier
37562, 1997-051XX
Orbit
LEO
Country
Flag of USUS
Related business
Manufacturer
Unknown
Mission
Spacecraft
Bus & Motor
Unknown
Mass
Unknown
Launch date (UTC)
1997-09-14 (29 years ago)
Launch vehicle
Unknown
Launch site
Tyuratam Missile And Space Complex (TTMTR)
Object type
Payload
Rocket body
Debris
Shape & HBR
Unknown shape, 0.1 m
Radar Cross Section
Small (<0.1 m²)

Expand to show TLE details & history
Last TLE update: 4 days ago

TLE from 4 days ago
0 IRIDIUM 33 DEB
1 37562U 97051XX  26205.58437708  .00004418  00000-0  94164-3 0  9996
2 37562  86.3751 305.8302 0025516  73.1432 349.3637 14.58555711895891
Epoch: 2026-07-24T14:01Z
TLE epoch observation values (Epoch: 2026-07-24T14:01:30.179Z)
Latitude
62.3261°
Longitude
160.04624°
Altitude
690.876 km
Speed
7.526 km/s
True Right ascension
20h 50m 55s
True Declination
62° 10' 59"
Sunlit
Object was in daylight at epoch
Visualization orbit readout
Latitude
Unknown
Longitude
Unknown
Altitude
Unknown
Speed
Unknown
Apparent Right ascension
Unknown
Apparent Declination
Unknown
Sunlit
N/A
Visualization observer readout
Local Sidereal Time
22:03:16
Azimuth
Unknown
Elevation
Unknown
Doppler factor
Unknown
Orbital elements
Apogee altitude
712.819 km
Perigee altitude
676.725 km
Semi-major axis
7,072.909 km
Eccentricity
0.00255
Inclination
86.3751°
RAAN
305.8302°
Arg. of periapsis
73.1432°
True anomaly
349.30956°
Mean anomaly
349.3637°
Eccentric anomaly
349.33665°
Mean motion
3.64877 °/min
Orbital period
98.66 mins
BSTAR
0.00094164
Loading maneuver chart data...
Computing Atmospheric mass density...

Documentation

Showing up to 5 results
|